铱星星座 166星 (IRIDIUM 166)

导读

IRIDIUM 166(铱星166)是美国铱星星座的低轨道通信卫星,由铱星通信公司运营,于2018年7月25日发射入轨。铱星系统是全球首个实现无缝覆盖的低轨卫星通信网络,可为全球任意地点提供语音和数据通信服务,尤其覆盖地面网络无法抵达的偏远区域。IRIDIUM 166运行在高度约780公里近地轨道,倾角约86.4°,属于系统后续组网卫星,承担补充通信覆盖的任务,为铱星系统的稳定运行提供支撑。

基本信息
目录编号:
43570
目录名称:
IRIDIUM 166
国际标识:
2018-061B
轨道中心:
EARTH
卫星名称:
铱星星座 166星
卫星全名:
铱星星座 166星 (IRIDIUM 166)
卫星状态:
在轨 (已飞行2879 天)
发射日期:
2018-07-25 UTC
国别 :
美国 (US)
星等 :
--
轨道信息
数据来源 国际轨道数据 AOE轨道数据
星历时间 2026-06-12T12:50:46+0800
15小时前
查看轨道信息
2026-06-06T08:00:00+0800
6天前
查看轨道信息
半长轴 7155.804km 7155.809km
偏心率 0.0002119 0.0002565
轨道倾角 86.397° 86.396°
近地点辐角 85.613° 80.381°
升交点赤经 58.832° 61.424°
平近点角 274.531° 318.309°
近地点 776.15km 775.836km
远地点 779.184km 779.508km
周期 100.403分钟 100.403分钟
每日圈数 14.342179 14.342164
详细信息
平衡模式:
三轴稳定
覆盖范围:
全球
运营商:
铱星通信公司
运营商所在国:
美国
制造商(研发单位):
阿莱尼亚宇航公司
制造商所在国:
意大利
使用方式:
暂无
卫星简介
铱星(Iridium)是由共66个运作中的通信卫星组成的卫星通信系统。这个系统原本规划77个通信卫星,所以用原子序数为77的铱元素来命名。铱卫星允许人们使用手持型电子设备进行全球性的语音及数据通讯。该卫星仍在工作。
2D轨道图
3D轨道图
轨道高度分析图
轨道倾角分析图
轨道综合分析图
查看轨道综合分析图